星链-3944 (STARLINK-3944 )

导读

STARLINK-3944是美国SpaceX公司星链(Starlink)星座中的一颗卫星,于2022年5月13日发射入轨。星链旨在搭建全球卫星互联网,为全球多地提供高速低延迟网络服务,该卫星是星链大规模组网进程中的组成单元,服务于项目的全球互联网覆盖目标建设。

Basic Information
目录编号:
52544
目录名称:
STARLINK-3944
国际标识:
2022-051M
轨道中心:
EARTH
卫星名称:
星链-3944
卫星全名:
星链-3944 (STARLINK-3944 )
卫星状态:
在轨 (已飞行1575 天)
发射日期:
2022-05-13 UTC
国别 :
美国 (US)
星等 :
--
Orbit Information
数据来源 国际轨道数据 AOE轨道数据
星历时间 2026-09-04T05:15:15+0800
9小时前
查看轨道信息
2026-09-04T02:00:00+0800
12小时前
查看轨道信息
半长轴 6848.855km 6848.887km
偏心率 0.0001207 0.0001171
轨道倾角 53.161° 53.162°
近地点辐角 70.226° 66.937°
升交点赤经 51.395° 52.026°
平近点角 289.887° 265.074°
近地点 469.891km 469.947km
远地点 471.545km 471.553km
周期 94.013分钟 94.013分钟
每日圈数 15.317076 15.316968
Detailed Information
固有亮度:
5
最大亮度:
2.5
卫星平台:
Starlink v1.5
覆盖范围:
全球
运营商:
太空探索技术公司
运营商所在国:
美国
制造商(研发单位):
太空探索技术公司
制造商所在国:
美国
使用方式:
暂无
Satellite Introduction
星链(Starlink)计划是由太空探索技术公司(SpaceX)提出的一个巨型低轨卫星互联网星座项目,计划在2019年至2024年间在太空搭建由约1.2万颗卫星组成的“星链”网络,其中1584颗将部署在地球上空550千米处的近地轨道,并从2020年开始工作。该卫星仍在工作。
2D Orbit Map
3D Orbit Map
Orbit Altitude Analysis Chart
Orbit Inclination Analysis Chart
Orbit Comprehensive Analysis Chart
View Comprehensive Chart
Conjunction Data List
Event ID Objects TCA Miss Dist (km) Collision Risk Probability Collision Risk Index (CRI) Action
CDM_260904-044905-254405-701423
OBJECT L (57014)
2026-09-04T
04:49:52+0000
0.557 km
远距离
1.097138E-4 高风险 0.76
CDM_260905-162605-254405-307621
2026-09-05T
16:26:22+0000
0.868 km
远距离
2.387025E-5 中风险 0.63
CDM_260905-153905-254405-307621
2026-09-05T
15:39:23+0000
1.815 km
极远距离
2.137704E-6 低风险 0.42
CDM_260903-120905-254406-971021
2026-09-03T
12:09:38+0000
2.629 km
极远距离
1.53377E-6 低风险 0.39
CDM_260905-093705-254406-525721
2026-09-05T
09:37:04+0000
2.689 km
极远距离
1.435717E-6 低风险 0.38
CDM_260904-223805-254406-876921
2026-09-04T
22:38:10+0000
2.829 km
极远距离
1.354726E-6 低风险 0.38
CDM_260905-062605-254406-930221
2026-09-05T
06:26:11+0000
2.898 km
极远距离
1.336061E-6 低风险 0.38
CDM_260903-042105-254406-414722
2026-09-03T
04:21:35+0000
2.976 km
极远距离
1.265083E-6 低风险 0.37
CDM_260903-104105-254405-718622
OBJECT W (57186)
2026-09-03T
10:41:00+0000
2.918 km
极远距离
1.22352E-6 低风险 0.37
CDM_260904-083305-254406-755521
2026-09-04T
08:33:55+0000
2.817 km
极远距离
1.2076E-6 低风险 0.37